Vertical_Velocity
7 2 2 3 2 3 1 -1 0 1 -1 -2 -1 -2 -2 -2 -2 -1 -1 -1 -0 -1
6 7 3 3 1 1 1 3 2 1 1 1 0 0 0 -0 -0 -1 -1 -0 -0 -1
10 8 6 4 4 3 2 1 -2 -0 1 2 3 2 2 1 0 -0 -1 -1 -1 -2
-1 5 6 4 4 5 2 1 1 2 1 -1 -1 2 3 2 1 -1 -2 -0 -0 -1
-1 -1 1 5 3 1 4 3 1 0 1 1 1 0 1 0 1 1 1 1 0 -2
1 -2 4 3 5 2 3 3 2 1 1 1 0 -0 -1 1 1 1 0 0 0 -3
5 2 4 2 2 2 3 -0 1 1 -1 -3 -4 -2 2 1 -0 -1 -1 -1 -0 -1
7 5 3 5 2 1 1 3 -1 4 5 4 2 -1 -1 2 4 1 -2 -3 -1 -1
7 3 3 3 2 3 7 5 -1 0 3 -2 -1 6 2 0 -0 -1 -2 -1 -0 -1
4 4 3 2 1 -1 1 1 1 -4 4 4 -1 3 4 1 1 -3 -4 -3 -1 0
1 -0 -0 1 1 3 4 0 1 2 4 2 3 1 2 -2 -5 -4 1 -2 -2 -1
2 0 0 3 5 5 3 -2 -2 2 2 7 3 1 -4 -2 -0 1 -2 -2 -3 -2
1 1 1 3 0 -2 -2 -2 2 7 5 1 -2 -2 1 -0 -0 -1 -0 1 -0 1
2 1 1 -1 2 2 0 3 4 -1 -1 -1 -2 0 0 -1 1 -1 -1 2 3 1
Height
3009 3011 3015 3018 3021 3024 3026 3029 3031 3033 3034 3036 3037 3038 3039 3040 3041 3042 3042 3042 3042 3041
2999 3002 3006 3009 3011 3014 3017 3020 3022 3024 3025 3027 3028 3030 3030 3031 3032 3032 3033 3033 3033 3032
2991 2994 2996 2998 3002 3005 3008 3010 3012 3014 3015 3017 3019 3021 3021 3022 3022 3023 3023 3024 3024 3023
2982 2986 2988 2990 2992 2995 2997 2999 3001 3003 3004 3006 3009 3011 3012 3013 3014 3015 3015 3014 3014 3012
2973 2977 2981 2982 2983 2985 2987 2988 2990 2992 2994 2997 3000 3002 3004 3004 3005 3006 3005 3005 3004 3002
2964 2968 2970 2972 2973 2976 2978 2979 2981 2984 2987 2989 2991 2993 2995 2996 2996 2996 2996 2995 2993 2991
2954 2957 2961 2963 2965 2966 2968 2970 2973 2976 2978 2980 2983 2985 2986 2987 2986 2986 2985 2984 2984 2984
2947 2949 2952 2954 2958 2961 2964 2965 2968 2970 2972 2974 2975 2976 2977 2977 2977 2976 2975 2975 2976 2976
2942 2945 2948 2952 2954 2957 2958 2959 2960 2962 2963 2964 2965 2967 2967 2967 2967 2968 2970 2971 2970 2968
2939 2941 2943 2946 2947 2950 2950 2951 2953 2955 2956 2956 2957 2957 2958 2958 2959 2961 2963 2963 2962 2961
2934 2936 2938 2939 2941 2942 2943 2945 2948 2949 2950 2950 2950 2951 2951 2952 2954 2956 2956 2956 2954 2952
2929 2931 2932 2934 2935 2936 2937 2939 2942 2943 2943 2943 2944 2945 2946 2948 2950 2951 2950 2948 2946 2943
2925 2926 2927 2928 2930 2931 2932 2934 2937 2937 2937 2937 2938 2940 2942 2943 2944 2944 2944 2942 2940 2936
2920 2921 2923 2924 2925 2926 2928 2929 2930 2931 2931 2932 2934 2936 2937 2937 2937 2937 2938 2937 2934 2930